Погода в Ресистенсии

Аргентина     27°27′43″S   58°58′58″W
В апреле 2022 года жителям России запретили посещать сайт meteo.paraplan.net по решению Генеральной прокуратуры. Аудитория сайта уменьшилась в 10 раз. Владельцы сайта не видят смысла в поддержке погодного сервера в таких условиях. Сайт будет закрыт в октябре.
темп.,
°C
ветер,
м/с
пор.,
м/с
влажн.,
%
обл.,
%
осадки,
мм/ч
давл.,
гПа
погр.,
м
30 сентября, пт
пт3000:00+14юв258797 0.0 1019184
03:00+13ююв239183 0.0 1018102
06:00+12ю22932 0.0 101881
09:00+18ю23700 0.0 1020534
12:00+24ю34461 0.0 10191622
15:00+27ю33333 0.0 10162346
18:00+25юв343875 0.0 1016660
21:00+20в25600 0.0 1018208
1 октября, сб
сб100:00+16в24750 0.0 1019109
03:00+15вюв23830 0.0 101980
06:00+14вюв23890 0.0 101984
09:00+20вюв23620 0.0 1021478
12:00+26юв23340 0.0 10201635
15:00+28юв33250 0.0 10172019
18:00+26вюв35290 0.0 1016898
21:00+20вюв38450 0.0 1018200
2 октября, вс
вс200:00+18вюв39570 0.0 1020266
03:00+16вюв38700 0.0 1019188
06:00+15вюв311810 0.0 1019305
09:00+20в36580 0.0 1021523
12:00+26юв34325 0.0 10201645
15:00+29юв442411 0.0 10172244
18:00+26юв46280 0.0 10161186
21:00+20юв310480 0.0 1018320
3 октября, пн
пн300:00+17вюв310560 0.0 1019355
03:00+15вюв39650 0.0 1018234
06:00+13юв310710 0.0 1018258
09:00+20вюв48520 0.0 1018548
12:00+27вюв56270 0.0 10161551
15:00+29вюв45190 0.0 10132122
18:00+27вюв46220 0.0 10121209
21:00+20вюв310375 0.0 1013326
4 октября, вт
вт400:00+18вюв312550 0.0 1013403
03:00+16вюв310680 0.0 1012302
06:00+15в412750 0.0 1012366
09:00+20в48495 0.0 1013492
12:00+28в33260 0.0 10121376
15:00+31вюв33190 0.0 10081905
18:00+29вюв46240 0.0 1007754
21:00+22вюв411374 0.0 1008311